User: anonymous   Login
Location: Unspecified
(0.0000°N, 0.0000°E)
Time: 18:58:18
(UTC+00:00)
Language:

ELEKTRO-L - Orbit

View from above orbital plane
View from above orbital plane
View from above satellite
View from above satellite

Ground track
Ground track

The orbit data is extracted from the following two-line orbital elements,

1 37344U 11001A   17112.73115056 -.00000256 +00000-0 +00000-0 0  9998
2 37344 002.3259 078.1571 0004216 282.0800 078.0589 01.00221241022954
Epoch (UTC): 22 April 2017 17:32:51
Eccentricity: 0.0004216
inclination: 2.3259°
perigee height: 35782 km
apogee height: 35818 km
right ascension of ascending node: 78.1571°
argument of perigee: 282.0800°
revolutions per day: 1.00221241
mean anomaly at epoch: 78.0589°
orbit number at epoch: 2295

The dashed part of the orbit path shows where the satellite is in the earth's shadow,  

DLR